Location: LewisvilleTX
(33.0462°N, 96.9942°W)
Time: 06:15:49
(UTC+00:00)

Envisat - Pass Details

Date: 28 September 2021
Orbit: 764 x 766 km, 98.2° (Epoch: 23 October)

Event Time Altitude Azimuth Distance (km) Brightness Sun altitude
Rises 10:30:18 0° 31° (NNE) 3,232 6.9 -23.7°
Reaches altitude 10° 10:33:16 10° 49° (NE) 2,302 6.3 -23.1°
Maximum altitude 10:36:50 19° 94° (E) 1,746 5.7 -22.4°
Drops below altitude 10° 10:40:24 10° 140° (SE) 2,291 5.8 -21.6°
Sets 10:43:19 0° 157° (SSE) 3,213 6.4 -21.0°
